CXA1012 ZSQD-RKSI

Flight info

Callsign CXA1012
Flight time N/A
Altitude 31100
Route LAT81D LATUX W209 AGAVO/N0501F311 Y644 REBIT REBIT1Y
Aircraft A35K/H-SDE2E3GHIJ3J4J5LM1ORWXY/LB1D1

Departure

Time 2026-05-04 10:54
Airport Qingdao Jiaodong International Airport (ZSQD)

Arrival

Time N/A
Airport Incheon International Airport (RKSI)
Time Latitude Longitude Altitude Speed Heading
2026-05-04 10:30 36.37846 120.08972 43 ft 0 kts 253°
2026-05-04 10:44 36.37828 120.08727 44 ft 785 kts 253°
2026-05-04 10:45 36.37861 120.09057 46 ft 0 kts 253°
2026-05-04 10:45 36.37860 120.09044 45 ft 3 kts 261°
2026-05-04 10:45 36.37860 120.09003 44 ft 16 kts 266°
2026-05-04 10:45 36.37892 120.08845 46 ft 0 kts 266°
2026-05-04 10:46 36.37812 120.09107 46 ft 0 kts 266°
2026-05-04 10:46 36.37865 120.08998 44 ft 0 kts 266°
2026-05-04 10:49 36.37809 120.09109 45 ft 0 kts 338°
2026-05-04 10:51 36.37945 120.09058 43 ft 21 kts 347°
2026-05-04 10:52 36.38047 120.09023 42 ft 10 kts
2026-05-04 10:52 36.38089 120.09074 43 ft 8 kts 65°
2026-05-04 10:52 36.38108 120.09149 43 ft 10 kts 73°
2026-05-04 10:54 36.35712 120.10278 585 ft 162 kts 162°
2026-05-04 10:54 36.34642 120.10736 1410 ft 172 kts 160°
2026-05-04 10:56 36.27196 120.20562 4562 ft 274 kts 71°
2026-05-04 10:56 36.27855 120.22791 5282 ft 277 kts 64°
2026-05-04 10:56 36.28576 120.25040 5946 ft 284 kts 65°
2026-05-04 10:57 36.29262 120.27365 6617 ft 290 kts 66°
2026-05-04 10:57 36.29919 120.29752 7301 ft 295 kts 67°
2026-05-04 10:57 36.30303 120.32283 7972 ft 306 kts 88°
2026-05-04 10:57 36.29759 120.34843 8673 ft 314 kts 119°
2026-05-04 10:58 36.28278 120.36811 9354 ft 315 kts 151°
2026-05-04 10:58 36.26262 120.37769 10063 ft 311 kts 172°
2026-05-04 10:58 36.24119 120.38418 10477 ft 326 kts 171°
2026-05-04 10:58 36.21860 120.39160 10779 ft 345 kts 169°
2026-05-04 10:59 36.19499 120.40004 11092 ft 362 kts 168°
2026-05-04 10:59 36.17038 120.40923 11389 ft 377 kts 167°
2026-05-04 10:59 36.14486 120.41896 11746 ft 390 kts 167°
2026-05-04 10:59 36.11871 120.42903 12257 ft 396 kts 167°
2026-05-04 11:00 36.09225 120.43928 12847 ft 401 kts 167°
2026-05-04 11:01 35.90216 120.52180 16663 ft 429 kts 160°
2026-05-04 11:02 35.87479 120.53694 17184 ft 433 kts 160°
2026-05-04 11:02 35.84721 120.55213 17701 ft 436 kts 160°
2026-05-04 11:05 35.49757 120.85899 23772 ft 494 kts 96°
2026-05-04 11:06 35.49748 120.90065 23991 ft 497 kts 82°
2026-05-04 11:06 35.50510 120.94204 24192 ft 498 kts 68°
2026-05-04 11:06 35.52007 120.98014 24446 ft 494 kts 53°
2026-05-04 11:06 35.54133 121.01287 24696 ft 488 kts 39°
2026-05-04 11:08 35.66613 121.27259 26367 ft 528 kts 64°
2026-05-04 11:10 35.77138 121.56897 28240 ft 553 kts 64°
2026-05-04 11:12 35.88111 121.88143 30032 ft 581 kts 65°
2026-05-04 11:12 35.89712 121.92729 30271 ft 585 kts 65°
2026-05-04 11:12 35.91323 121.97350 30523 ft 587 kts 65°
2026-05-04 11:12 35.92941 122.01997 30817 ft 589 kts 66°
2026-05-04 11:13 35.94559 122.06653 31070 ft 592 kts 66°
2026-05-04 11:13 35.96181 122.11325 31171 ft 593 kts 66°
2026-05-04 11:13 35.99400 122.20625 31194 ft 592 kts 66°
2026-05-04 11:16 36.15387 122.67246 31145 ft 540 kts 65°
2026-05-04 11:16 36.16821 122.71465 31192 ft 525 kts 65°
2026-05-04 11:16 36.18220 122.75578 31193 ft 515 kts 65°
2026-05-04 11:17 36.20963 122.83658 31195 ft 511 kts 65°
2026-05-04 11:19 36.31924 123.16196 31191 ft 512 kts 65°
2026-05-04 11:19 36.34654 123.24356 31194 ft 512 kts 65°
2026-05-04 11:20 36.37378 123.32523 31196 ft 512 kts 65°
2026-05-04 11:20 36.40095 123.40689 31196 ft 512 kts 65°
2026-05-04 11:22 36.50905 123.73409 31193 ft 513 kts 66°
2026-05-04 11:23 36.53600 123.81622 31193 ft 513 kts 66°
2026-05-04 11:25 36.63003 124.10461 31195 ft 514 kts 66°
2026-05-04 11:25 36.65683 124.18732 31195 ft 515 kts 66°
2026-05-04 11:27 36.77650 124.55966 30640 ft 502 kts 66°
2026-05-04 11:28 36.78941 124.60041 29599 ft 508 kts 72°
2026-05-04 11:28 36.79944 124.64276 28488 ft 512 kts 78°
2026-05-04 11:28 36.80954 124.68528 27813 ft 508 kts 65°
2026-05-04 11:28 36.82415 124.72526 27373 ft 502 kts 64°
2026-05-04 11:29 36.83835 124.76486 26767 ft 498 kts 65°
2026-05-04 11:29 36.85179 124.80446 26131 ft 494 kts 66°
2026-05-04 11:29 36.86045 124.83069 25718 ft 492 kts 66°
2026-05-04 11:29 36.87324 124.87011 25083 ft 487 kts 67°
2026-05-04 11:31 36.96075 125.14669 20604 ft 445 kts 68°
2026-05-04 11:33 37.03225 125.37620 16816 ft 405 kts 69°
2026-05-04 11:33 37.04240 125.40900 16254 ft 402 kts 69°
2026-05-04 11:33 37.05244 125.44150 15694 ft 399 kts 69°
2026-05-04 11:34 37.06240 125.47371 15136 ft 396 kts 69°
2026-05-04 11:34 37.07233 125.50587 14570 ft 394 kts 69°
2026-05-04 11:34 37.08217 125.53776 13993 ft 392 kts 69°
2026-05-04 11:34 37.09198 125.56955 13398 ft 390 kts 69°
2026-05-04 11:35 37.10174 125.60120 12785 ft 387 kts 69°
2026-05-04 11:35 37.11141 125.63262 12140 ft 386 kts 68°
2026-05-04 11:35 37.12105 125.66393 11547 ft 383 kts 68°
2026-05-04 11:35 37.13060 125.69500 10950 ft 380 kts 68°
2026-05-04 11:36 37.13993 125.72535 10743 ft 366 kts 68°
2026-05-04 11:36 37.14881 125.75447 10612 ft 349 kts 68°
2026-05-04 11:36 37.15714 125.78192 10487 ft 334 kts 68°
2026-05-04 11:36 37.16522 125.80855 10356 ft 320 kts 68°
2026-05-04 11:37 37.17297 125.83409 10244 ft 307 kts 68°
2026-05-04 11:37 37.18045 125.85860 10096 ft 295 kts 68°
2026-05-04 11:37 37.18768 125.88216 9984 ft 285 kts 68°
2026-05-04 11:37 37.19482 125.90540 9636 ft 289 kts 68°
2026-05-04 11:38 37.20204 125.92897 9279 ft 290 kts 68°
2026-05-04 11:38 37.20924 125.95259 8939 ft 289 kts 68°
2026-05-04 11:38 37.21637 125.97605 8628 ft 288 kts 68°
2026-05-04 11:38 37.22348 125.99944 8302 ft 287 kts 68°
2026-05-04 11:39 37.23056 126.02276 7985 ft 285 kts 68°
2026-05-04 11:39 37.23762 126.04604 7660 ft 284 kts 68°
2026-05-04 11:40 37.26697 126.14298 6305 ft 279 kts 69°
2026-05-04 11:41 37.27384 126.16578 5994 ft 278 kts 69°
2026-05-04 11:41 37.28068 126.18846 5666 ft 277 kts 69°
2026-05-04 11:41 37.28740 126.21079 5368 ft 276 kts 69°
2026-05-04 11:41 37.29417 126.23329 5048 ft 275 kts 69°
2026-05-04 11:42 37.30087 126.25552 4836 ft 267 kts 68°
2026-05-04 11:42 37.30731 126.27689 4686 ft 256 kts 68°
2026-05-04 11:42 37.31353 126.29740 4553 ft 246 kts 68°
2026-05-04 11:42 37.31950 126.31707 4407 ft 236 kts 68°
2026-05-04 11:43 37.32528 126.33610 4237 ft 231 kts 68°
2026-05-04 11:43 37.33098 126.35489 3996 ft 230 kts 68°
2026-05-04 11:43 37.33646 126.37372 3746 ft 229 kts 71°
2026-05-04 11:43 37.33780 126.39362 3578 ft 233 kts 102°
2026-05-04 11:44 37.32977 126.41072 3514 ft 231 kts 140°
2026-05-04 11:44 37.31690 126.42303 3511 ft 234 kts 149°
2026-05-04 11:44 37.30339 126.43448 3509 ft 235 kts 149°
2026-05-04 11:44 37.28986 126.44604 3505 ft 235 kts 148°
2026-05-04 11:45 37.27639 126.45775 3510 ft 236 kts 148°
2026-05-04 11:45 37.26296 126.46949 3508 ft 235 kts 148°
2026-05-04 11:45 37.24955 126.48127 3506 ft 235 kts 148°
2026-05-04 11:45 37.23633 126.49294 3507 ft 235 kts 147°
2026-05-04 11:46 37.22299 126.50475 3483 ft 234 kts 147°
2026-05-04 11:46 37.20968 126.51651 3446 ft 234 kts 147°
2026-05-04 11:46 37.19735 126.52991 3392 ft 237 kts 129°
2026-05-04 11:46 37.19127 126.54872 3347 ft 234 kts 93°
2026-05-04 11:47 37.19466 126.56812 3309 ft 227 kts 59°
2026-05-04 11:47 37.20320 126.58466 3251 ft 224 kts 52°
2026-05-04 11:47 37.21248 126.60045 3179 ft 224 kts 50°
2026-05-04 11:47 37.22378 126.61356 3128 ft 220 kts 27°
2026-05-04 11:48 37.23819 126.61822 3078 ft 212 kts 356°
2026-05-04 11:48 37.25204 126.61313 3033 ft 205 kts 330°
2026-05-04 11:48 37.26360 126.60360 2972 ft 193 kts 324°
2026-05-04 11:48 37.27437 126.59380 2934 ft 191 kts 324°
2026-05-04 11:49 37.28508 126.58407 2887 ft 190 kts 324°
2026-05-04 11:49 37.29570 126.57453 2836 ft 190 kts 325°
2026-05-04 11:49 37.30648 126.56493 2801 ft 189 kts 325°
2026-05-04 11:49 37.31721 126.55537 2753 ft 189 kts 324°
2026-05-04 11:50 37.32795 126.54581 2688 ft 189 kts 324°
2026-05-04 11:50 37.33870 126.53626 2608 ft 189 kts 325°
2026-05-04 11:50 37.34945 126.52674 2541 ft 188 kts 324°
2026-05-04 11:50 37.35987 126.51749 2455 ft 178 kts 324°
2026-05-04 11:51 37.36958 126.50884 2306 ft 167 kts 324°
2026-05-04 11:51 37.37906 126.50036 1994 ft 167 kts 324°
2026-05-04 11:51 37.38855 126.49191 1709 ft 166 kts 324°
2026-05-04 11:51 37.39792 126.48354 1597 ft 161 kts 324°
2026-05-04 11:52 37.40678 126.47563 1356 ft 157 kts 324°
2026-05-04 11:52 37.41573 126.46774 802 ft 157 kts 322°
2026-05-04 11:52 37.42389 126.45951 491 ft 143 kts 315°
2026-05-04 11:52 37.43201 126.45260 337 ft 138 kts 324°
2026-05-04 11:53 37.43944 126.44542 183 ft 135 kts 317°
2026-05-04 11:53 37.44714 126.43843 45 ft 136 kts 320°
2026-05-04 11:53 37.45413 126.43217 70 ft 117 kts 320°
2026-05-04 11:53 37.46100 126.42575 545 ft 133 kts 317°
2026-05-04 11:55 37.39494 126.32707 1571 ft 355 kts 192°
2026-05-04 11:55 37.37111 126.32743 1583 ft 334 kts 171°
2026-05-04 11:56 37.35029 126.33783 1591 ft 313 kts 151°
2026-05-04 11:56 37.33250 126.35215 1580 ft 295 kts 147°